This demonstration page uses our WeatherBlox Daily Observations layout. Learn more.

Left ArrowRight Arrow

44.89941, -97.11507

Hourly Observations for October 6, 2022

Temp ( °F °C ) Dew Point ( °F °C ) Humidity (%) Winds ( mph kmh ) Pressure ( in mb ) Visibility ( mi km ) Precip ( " mm )
12:53 am 00:53 Mostly Clear 56 13.3 51 10.6 84 84 N 14 22 30.10 1019 10 16 0.00 0.00
1:53 am 01:53 Mostly Cloudy 53 11.7 46 7.8 77 77 NNE 18 30 30.13 1020 10 16 0.00 0.00
2:53 am 02:53 Mostly Clear 48 8.9 44 6.7 86 86 N 22 35 30.17 1022 10 16 0.00 0.00
3:24 am 03:24 Mostly Cloudy 46 7.8 42 5.6 86 86 N 23 37 30.21 1023 10 16 0.00 0.00
3:53 am 03:53 Mostly Cloudy 43 6.1 39 3.9 86 86 N 23 37 30.21 1023 10 16 0.00 0.00
4:01 am 04:01 Partly Cloudy 42 5.6 38 3.3 85 85 N 20 31 30.25 1024 10 16 0.00 0.00
4:53 am 04:53 Clear 41 5 37 2.8 86 86 N 21 33 30.23 1024 10 16 0.00 0.00
5:53 am 05:53 Clear 40 4.4 35 1.7 83 83 N 21 33 30.25 1025 10 16 0.00 0.00
6:53 am 06:53 Mostly Clear 39 3.9 34 1.1 82 82 N 20 31 30.29 1026 10 16 0.00 0.00
7:53 am 07:53 Mostly Sunny 38 3.3 32 0 79 79 N 23 37 30.32 1027 10 16 0.00 0.00
8:08 am 08:08 Mostly Cloudy 38 3.3 32 0 79 79 N 18 30 30.36 1028 10 16 0.00 0.00
8:53 am 08:53 Mostly Cloudy 38 3.3 32 0 79 79 N 25 41 30.35 1028 10 16 0.00 0.00
9:53 am 09:53 Mostly Cloudy 38 3.3 31 -0.6 76 76 N 21 33 30.40 1029 10 16 0.00 0.00
10:48 am 10:48 Partly Cloudy 41 5 30 -1 65 65 N 17 28 30.43 1030 10 16 0.00 0.00
10:53 am 10:53 Partly Cloudy 42 5.6 31 -0.6 64 64 N 16 26 30.41 1030 10 16 0.00 0.00
11:53 am 11:53 Sunny 45 7.2 31 -0.6 58 58 N 14 22 30.41 1030 10 16 0.00 0.00
12:53 pm 12:53 Sunny 46 7.8 30 -1.1 53 53 N 17 28 30.42 1030 10 16 0.00 0.00
1:53 pm 13:53 Sunny 47 8.3 29 -1.7 49 49 NNE 18 30 30.43 1030 10 16 0.00 0.00
2:53 pm 14:53 Sunny 49 9.4 29 -1.7 46 46 N 20 31 30.42 1030 10 16 0.00 0.00
3:53 pm 15:53 Sunny 48 8.9 28 -2.2 46 46 N 20 31 30.44 1031 10 16 0.00 0.00
4:53 pm 16:53 Sunny 47 8.3 28 -2.2 47 47 NNE 15 24 30.44 1031 10 16 0.00 0.00
5:53 pm 17:53 Sunny 44 6.7 28 -2.2 53 53 N 14 22 30.46 1032 10 16 0.00 0.00
6:53 pm 18:53 Sunny 41 5 28 -2.2 60 60 N 13 20 30.49 1032 10 16 0.00 0.00
7:53 pm 19:53 Clear 35 1.7 27 -2.8 72 72 N 9 15 30.51 1033 10 16 0.00 0.00
8:53 pm 20:53 Clear 33 0.6 27 -2.8 78 78 N 7 11 30.52 1034 10 16 0.00 0.00
9:53 pm 21:53 Clear 30 -1.1 26 -3.3 85 85 N 8 13 30.54 1034 10 16 0.00 0.00
10:53 pm 22:53 Clear 29 -1.7 26 -3.3 89 89 N 6 9 30.55 1034 10 16 0.00 0.00
11:53 pm 23:53 Clear 28 -2.2 25 -3.9 88 88 N 8 13 30.55 1035 10 16 0.00 0.00

Powered by AerisWeather